Flag for Germany Weather past 2 weeks in Schwerin, Mecklenburg-Western Pomerania, Germany

Now
74 °F

Passing clouds.


Feels Like: 77 °F
Forecast: 65 / 89 °F
Wind: 2 mph from Southwest

Location: Schwerin

Current Time: Jul 3, 2015 at 9:19:51 AM

Latest Report: Jul 3, 2015 at 9:00 AM


Visibility: 16 mi

Pressure: 30.28 "Hg

Humidity: 52%

Dew point: 55 °F

Location of SchwerinLocation

Historic Weather in Schwerin — Graph

°F

Schwerin temperature yesterday

Maximum temperature yesterday: 87 °F (at 4:00 PM)
Minimum temperature yesterday: 62 °F (at 6:00 AM)
Average temperature yesterday: 75 °F

Past Weeks' High & Low Weather Summary

 TemperatureHumidityPressure
High87 °F (Jul 2, 4:00 PM)98% (Jun 22, 4:00 AM)30.27 "Hg (Jun 22, 4:00 AM)
Low47 °F (Jun 21, 4:00 AM)29% (Jul 2, 4:00 PM)29.63 "Hg (Jun 23, 3:00 AM)
Average61 °F72%30.03 "Hg
* Reported Jun 18 8:00 AM — Jul 3 8:00 AM, Schwerin, Weather by CustomWeather, © 2015

Note: Actual official high and low records may vary slightly from our data, if they occured in-between our weather recording intervals... More about our weather records

Advertising

Schwerin weather history for previous 24 hours

 ConditionsComfort  
Time TempWeatherWind HumidityBarometerVisibility
8:00 AM
Fri, Jul 3
72 °FPartly sunny.1 mph52%30.27 "Hg17 mi
7:00 AM68 °FPartly sunny.2 mph60%30.26 "Hg13 mi
6:00 AM66 °FScattered clouds.2 mph62%30.27 "Hg18 mi
4:00 AM68 °FPassing clouds.3 mph56%30.24 "Hg19 mi
3:00 AM69 °FOvercast.3 mph54%30.24 "Hg19 mi
2:00 AM69 °FOvercast.3 mph55%30.24 "Hg25 mi
1:00 AM70 °FPassing clouds.3 mph58%30.23 "Hg28 mi
12:00 AM72 °FOvercast.5 mph52%30.24 "Hg25 mi
10:00 PM
Thu, Jul 2
76 °FOvercast.5 mph49%30.22 "Hg28 mi
9:00 PM79 °FOvercast.5 mph45%30.21 "Hg25 mi
8:00 PM82 °FScattered clouds.5 mph41%30.21 "Hg19 mi
7:00 PM85 °FPartly sunny.5 mph33%30.21 "Hg31 mi
6:00 PM86 °FOvercast.5 mph30%30.21 "Hg19 mi
5:00 PM86 °FPartly sunny.5 mph29%30.21 "Hg19 mi
4:00 PM87 °FPartly sunny.6 mph29%30.22 "Hg22 mi
3:00 PM84 °FPartly sunny.7 mph30%30.22 "Hg17 mi
2:00 PM84 °FPassing clouds.6 mph32%30.23 "Hg17 mi
1:00 PM82 °FPartly sunny.6 mph32%30.24 "Hg16 mi
12:00 PM81 °FPassing clouds.6 mph36%30.25 "Hg16 mi
11:00 AM80 °FPartly sunny.5 mph41%30.26 "Hg19 mi
10:00 AM76 °FOvercast.3 mph46%30.26 "Hg19 mi
9:00 AM73 °FPartly sunny.5 mph51%30.27 "Hg19 mi
Weather by CustomWeather, © 2015

See weather overviewHow to use our weather pages